sat.trackr.live / text

‹ back to catalog

OPTUS D3

NORAD 35756 · 2009-044B

PAYLOAD ACTIVE UNKNOWN

§ Identity

Operator
Country
AUS
Launch date
2009-08-21
Launch site
FRGUI
Launch vehicle
Mass (kg)
RCS (m²)
6.31

Purposes: comms

External: N2YO · Heavens-Above · Gunter

§ Orbital elements

Epoch: 2026-09-19T22:50:47.515776Z

Period
1,436.08 min
Inclination
0.8071°
Eccentricity
0.0004219
Mean motion
1.00272795 rev/d
Perigee alt
35,768.5 km
Apogee alt
35,804.1 km
Semi-major
42,164.4 km
B*
0.0000e+0
RAAN
267.9291°
Arg perigee
268.9429°
Mean anomaly
320.8390°
Rev number
6,251

§ Raw data

OPTUS D31 35756U 09044B   26262.95193884 -.00000150  00000+0  00000+0 0  99932 35756   0.8071 267.9291 0004219 268.9429 320.8390  1.00272795 62518

JSON: /api/v1/satellites/35756 · /tle

For live sub-satellite position, see the globe view (requires WebGL).

§ Visibility from observer

Set your observer location to see the next 7 days of passes ≥ 10°. The values pass through the URL so the page stays shareable.

No JS? Fill the form by hand. The geolocation button needs JavaScript.